{"data":{"norad_id":62869,"epoch":"2026-05-25T03:35:44.136960Z","epoch_age_seconds":65204,"freshness":"FRESH","line1":"1 62869U 25022R   26145.14981640  .00014640  00000+0  50523-3 0  9995","line2":"2 62869  53.1580 134.6746 0001824  32.3411 327.7701 15.30213396 73601","mean_motion":15.30213396,"eccentricity":0.0001824,"inclination_deg":53.158,"raan_deg":134.6746,"arg_perigee_deg":32.3411,"mean_anomaly_deg":327.7701,"bstar":0.00050523,"rev_number":7360,"period_min":94.104521876764,"perigee_km":473.92502754789,"apogee_km":476.42511579164,"semimajor_km":6853.3120716698,"source":"CELESTRAK","updated_at":"2026-05-25T13:38:19.786496Z"}}